This is the latest recevied weather packets stored in our database for station/object KD2ZLA. If no packets are shown the sender has not sent any weather packets the latest 10 day(s).
| Time | Temp. | Humidity | Pressure | Rain* | Wind** | Luminosity | Snow |
|---|---|---|---|---|---|---|---|
| 1777214408 | 14.44° C | 49% | 1021.6 hPa | 0 mm | - | 677 W/m² | - |
| 1777214102 | 14.44° C | 50% | 1021.5 hPa | 0 mm | - | 671 W/m² | - |
| 1777213797 | 13.89° C | 52% | 1021.5 hPa | 0 mm | - | 663 W/m² | - |
| 1777213493 | 13.33° C | 53% | 1021.5 hPa | 0 mm | - | 651 W/m² | - |
| 1777213190 | 13.33° C | 54% | 1021.4 hPa | 0 mm | - | 641 W/m² | - |
| 1777212886 | 13.33° C | 52% | 1021.4 hPa | 0 mm | - | 630 W/m² | - |
| 1777212585 | 12.78° C | 56% | 1021.6 hPa | 0 mm | - | 618 W/m² | - |
| 1777212282 | 12.78° C | 55% | 1021.3 hPa | 0 mm | - | 605 W/m² | - |
| 1777211978 | 12.78° C | 54% | 1021.6 hPa | 0 mm | - | 593 W/m² | - |
| 1777211673 | 12.78° C | 54% | 1021.4 hPa | 0 mm | - | 576 W/m² | - |
| 1777211368 | 12.22° C | 56% | 1021.3 hPa | 0 mm | - | 567 W/m² | - |
| 1777211063 | 12.22° C | 61% | 1021.4 hPa | 0 mm | - | 553 W/m² | - |
| 1777210761 | 12.22° C | 62% | 1021.2 hPa | 0 mm | - | 538 W/m² | - |
| 1777210459 | 11.67° C | 60% | 1021.2 hPa | 0 mm | - | 522 W/m² | - |
| 1777210156 | 11.11° C | 61% | 1021 hPa | 0 mm | - | 507 W/m² | - |
| 1777209853 | 11.11° C | 65% | 1021.1 hPa | 0 mm | - | 492 W/m² | - |
| 1777209549 | 10.56° C | 69% | 1021 hPa | 0 mm | - | 473 W/m² | - |
| 1777209244 | 10.56° C | 69% | 1020.8 hPa | 0 mm | - | 458 W/m² | - |
| 1777208941 | 10.56° C | 69% | 1020.9 hPa | 0 mm | - | 443 W/m² | - |
| 1777208637 | 10.56° C | 73% | 1021.2 hPa | 0 mm | - | 426 W/m² | - |
| 1777208333 | 10° C | 73% | 1021.1 hPa | 0 mm | - | 434 W/m² | - |
| 1777208029 | 10° C | 74% | 1021 hPa | 0 mm | - | 332 W/m² | - |
| 1777207725 | 9.44° C | 78% | 1021 hPa | 0 mm | - | 294 W/m² | - |
| 1777207420 | 8.89° C | 80% | 1021 hPa | 0 mm | - | 286 W/m² | - |
| 1777207120 | 8.89° C | 81% | 1021 hPa | 0 mm | - | 67 W/m² | - |
* Rain latest hour (hover to see other rain measurements)
** Current wind speed in m/s (hover to see current wind gust speed)